Location: Alpine
(43.1636°N, 111.0180°W)
Time: 05:44:55
(UTC+00:00)

Tiros 1 despin weight - Pass Details

Date: 05 June 2022
Orbit: 591 x 639 km, 48.2° (Epoch: 30 June)

Event Time Altitude Azimuth Distance (km) Brightness Sun altitude
Rises 21:26:37 0° 232° (SW) 2,914 ? 57.2°
Reaches altitude 10° 21:28:58 10° 229° (SW) 2,003 ? 56.8°
Maximum altitude 21:33:31 62° 149° (SSE) 705 ? 56.1°
Drops below altitude 10° 21:38:01 10° 69° (ENE) 1,983 ? 55.3°
Sets 21:40:20 0° 66° (ENE) 2,882 ? 54.9°
